Location: Stamford Observatory
(41.1241°N, 73.5498°W)
Time: 21:28:12
(UTC-04:00)

Daily predictions for brighter satellites

Satellite Brightness Start Highest point End
(mag) Time Altitude Azimuth Time Altitude Azimuth Time Altitude Azimuth
OAO 2 Rocket 4.5 20:00:34 10° SW 20:04:45 27° SSE 20:09:00 10° ESE
Helios 1B rocket 3.2 20:03:10 10° N 20:07:15 59° WNW 20:11:17 10° SSW
Cosmos 2219 3.9 20:03:08 10° NNW 20:08:37 56° WSW 20:14:05 10° S
CZ-4B DEB 2.8 20:07:23 10° SSE 20:10:39 79° ENE 20:13:57 10° N
EO 1 Delta rocket 4.3 20:06:14 10° NNE 20:10:42 44° E 20:15:43 10° SSE
DELTA 2 R/B (1) 3.6 20:08:22 10° W 20:13:56 78° S 20:19:30 10° E
Meteor 2-21 Rocket 4.5 20:08:58 10° S 20:15:09 78° E 20:21:21 10° N
Okean 2 3.4 20:16:44 10° N 20:20:56 73° E 20:25:03 10° SSE
Cosmos 1975 3.9 20:18:14 10° SSE 20:21:41 27° E 20:25:09 10° NNE
Meteor 2-4 Rocket 4.1 20:17:16 10° NNW 20:23:07 75° W 20:29:01 10° S
NOSS 2-1 (D) 4.0 20:20:31 10° SW 20:24:20 61° NW 20:28:42 10° NNE
Cosmos 1697 Rocket 3.9 20:20:17 10° SSE 20:24:20 21° E 20:28:23 10° NE
NOSS 2-1 (C) 4.0 20:21:32 10° SW 20:25:22 61° NW 20:29:45 10° NNE
Cosmos 2123 Rocket 4.0 20:19:21 10° N 20:25:31 65° E 20:31:38 10° SSE
Cosmos 2278 3.7 20:20:40 10° S 20:26:13 60° ESE 20:31:50 10° NNE
Meteor 2-15 4.4 20:22:44 10° N 20:28:50 84° E 20:34:53 10° S
Lacrosse 5 rocket 1.9 20:27:38 10° NNW 20:31:09 37° NE 20:33:40 16° E
H-2A R/B 3.7 20:29:22 13° E 20:31:17 17° ENE 20:33:57 10° NNE
ERS-1 Rocket 3.6 20:27:43 11° SE 20:32:12 37° ENE 20:36:47 10° N
ALOS 2.4 20:27:59 10° S 20:32:40 78° W 20:37:21 10° NNW
Cosmos 1892 Rocket 4.0 20:29:04 10° NNW 20:33:32 69° W 20:37:59 10° S
Meteor 2-15 Rocket 4.4 20:28:01 10° N 20:34:07 79° E 20:40:10 10° S
Cosmos 1626 Rocket 4.0 20:30:32 10° N 20:34:44 41° ENE 20:38:27 12° SSE
Meteor 1-12 Rocket 4.4 20:30:36 10° SSE 20:36:06 52° E 20:41:44 10° NNE
Cosmos 1455 Rocket 3.0 20:34:35 10° S 20:38:54 88° W 20:43:17 10° N
H-2A R/B 2.9 20:35:05 10° S 20:38:57 76° W 20:42:53 10° NNW
Cosmos 2369 3.6 20:33:53 10° SSW 20:39:30 69° ESE 20:45:11 10° NNE
Cosmos 1461 2.7 20:37:47 10° NNW 20:41:52 73° ENE 20:44:43 18° SE
Cosmos 1602 Rocket 3.8 20:38:47 10° N 20:43:09 51° E 20:46:53 13° SSE
Cosmos 1980 Rocket 3.5 20:45:16 18° ESE 20:46:27 19° E 20:50:19 10° ENE
Cosmos 1153 Rocket 4.5 20:47:19 10° S 20:53:26 62° E 20:59:29 10° NNE
Cosmos 1939 Rocket 3.3 20:51:41 22° SE 20:54:01 45° ENE 20:58:00 10° N
Cosmos 468 Rocket 4.4 20:50:37 10° SSE 20:55:17 37° ESE 20:59:58 10° NE
Resurs 01 Rocket 4.4 20:53:13 10° SW 20:56:21 19° W 20:59:30 10° NW
Lacrosse 5 3.0 20:52:47 10° NNW 20:57:22 33° NNE 21:00:15 19° E
USA 215 4.5 20:57:33 11° E 21:02:50 32° NNE 21:08:27 10° NW
Cosmos 1814 Rocket 4.5 20:58:30 10° SSE 21:03:24 38° ESE 21:08:16 10° NE
SPOT 5 3.7 21:02:06 25° ESE 21:04:11 35° ENE 21:08:36 10° N
Cosmos 2084 4.0 21:00:26 10° NNW 21:04:15 40° NE 21:05:45 29° E
Cosmos 1447 Rocket 4.5 20:59:43 10° N 21:06:04 78° E 21:11:56 12° SSE
Cosmos 1802 Rocket 4.5 21:02:58 19° SSE 21:07:04 40° E 21:12:59 10° NNE
Cosmos 220 Rocket 3.8 21:03:28 10° NNW 21:07:43 79° ENE 21:09:49 29° SSE
Cosmos 1346 Rocket 4.4 21:07:09 10° NNW 21:10:43 33° W 21:14:19 10° SSW
Cosmos 2227 Rocket 2.7 21:08:06 10° NNW 21:13:41 60° WSW 21:18:21 15° S
USA 186 4.0 21:11:13 10° SSW 21:13:46 23° W 21:16:13 10° NW
Tiangong 1 1.3 21:12:47 10° W 21:15:51 60° N 21:16:25 48° NE
OTV 4 1.8 21:14:25 10° WSW 21:16:45 28° SSW 21:16:45 28° SSW
Cosmos 1606 Rocket 4.4 21:17:36 31° E 21:17:36 31° E 21:21:18 10° NNE
Cosmos 1500 3.0 21:18:30 24° S 21:20:41 87° E 21:24:28 10° N
Cosmos 1656 3.6 21:15:12 10° SSW 21:20:50 85° ESE 21:26:26 10° NNE
RESURS DK-1 3.0 21:17:57 10° N 21:21:50 38° ENE 21:22:21 36° ENE
BREEZE-M TANK 3.1 21:12:55 10° WNW 21:23:31 86° NNE 21:24:54 41° ESE
Cosmos 2016 Rocket 4.2 21:23:04 31° SE 21:25:30 45° E 21:31:21 10° NNE
Cosmos 2298 Rocket 3.9 21:20:37 10° NNW 21:25:58 86° ENE 21:28:25 33° SSE
Cosmos 2082 4.4 21:21:40 10° NW 21:27:04 49° WSW 21:31:16 16° S
CZ-4 DEB 4.1 21:26:40 24° SSW 21:28:02 37° W 21:30:59 10° NNW
Cosmos 2297 Rocket 2.5 21:23:47 10° NNW 21:29:22 62° WSW 21:32:48 24° S
Cosmos 1340 3.2 21:31:47 10° N 21:34:56 43° NE 21:34:56 43° NE
Envisat 3.1 21:34:13 27° S 21:36:59 72° WSW 21:42:04 10° NNW
Cosmos 2173 Rocket 3.9 21:32:57 16° S 21:38:16 80° E 21:44:38 10° N
H-2A R/B 3.5 21:39:13 21° ENE 21:39:13 21° ENE 21:42:43 10° NNE
Milstar 3 Cent rocket 4.3 21:21:57 10° WSW 21:40:59 47° SSW 21:45:56 31° SE
Cosmos 1726 Rocket 4.0 21:42:19 44° ENE 21:42:19 44° ENE 21:45:51 10° NNE
Cosmos 1937 Rocket 3.4 21:37:01 10° NNW 21:42:19 79° ENE 21:43:40 51° SSE
Terra 3.6 21:44:43 18° NE 21:44:43 18° NE 21:47:24 10° NNE
ASTEX 1 3.3 21:40:41 10° NNE 21:45:41 66° E 21:46:26 58° SE
Cosmos 2098 Rocket 4.2 21:45:59 41° SE 21:47:59 53° E 21:53:55 10° NNE
Cosmos 2100 Rocket 4.1 21:42:26 10° S 21:48:39 78° W 21:54:55 10° N
YAOGAN 6 3.0 21:49:35 58° N 21:49:35 58° N 21:52:41 10° N
OAO 2 Rocket 3.9 21:44:14 10° WSW 21:48:32 41° S 21:48:32 41° S
Cosmos 2061 Rocket 4.0 21:44:13 16° S 21:49:27 85° W 21:55:45 10° N
Cosmos 2150 Rocket 4.3 21:47:42 10° NNW 21:52:47 62° WSW 21:54:22 41° SSW
Cosmos 1743 2.9 21:53:16 69° W 21:53:24 69° W 21:57:20 10° N
Tsikada Rocket 4.2 21:48:27 10° N 21:54:41 50° ENE 21:55:35 47° ESE
Cosmos 1825 Rocket 3.5 21:50:34 10° N 21:55:01 80° W 21:55:21 73° SSW
MetOp-A 4.1 21:55:01 51° S 21:56:26 84° WSW 22:01:49 10° NNW
SPOT 1/Viking Rocket 3.5 21:57:13 63° ESE 21:57:41 66° ENE 22:02:52 10° N
Cosmos 990 Rocket 3.8 21:52:54 10° NNW 21:58:12 80° ENE 21:58:46 70° SE
DELTA 2 R/B (1) 3.8 21:54:48 10° W 22:00:12 53° SSW 22:00:24 52° S
USA 245 4.4 22:00:23 55° SSE 22:01:51 80° ENE 22:08:15 10° N
Cosmos 1953 Rocket 3.6 21:59:30 10° N 22:03:44 80° NNW 22:03:44 80° NNW
CZ-4B R/B 4.0 21:59:41 10° NNE 22:03:04 42° NE 22:03:04 42° NE
H-2A R/B 2.9 22:06:31 38° WSW 22:07:00 40° W 22:10:54 10° NNW
Cosmos 1697 Rocket 3.3 22:02:18 10° SW 22:07:50 55° WNW 22:13:23 10° NNE
Lacrosse 5 rocket 3.2 22:07:17 10° WNW 22:09:24 20° WSW 22:09:24 20° WSW
SL-16 R/B 3.8 22:15:31 21° NE 22:15:31 21° NE 22:17:32 10° NE
Cosmos 1842 4.5 22:11:03 10° N 22:13:33 38° N 22:13:33 38° N
NOAA 11 4.0 22:15:11 79° SSE 22:15:32 88° ENE 22:21:03 10° NNW
Cosmos 1816 Rocket 4.5 22:14:57 10° N 22:21:17 63° E 22:21:26 63° E
Cosmos 1758 Rocket 4.2 22:18:44 10° NNW 22:22:20 53° NW 22:22:20 53° NW
Cosmos 1725 Rocket 3.8 22:22:45 70° S 22:23:33 88° E 22:29:49 10° N
Cosmos 1125 Rocket 4.0 22:18:54 10° N 22:23:14 50° NE 22:23:14 50° NE
Cosmos 1763 Rocket 3.6 22:24:17 67° W 22:24:34 69° WNW 22:29:39 10° NNE
Cosmos 1980 Rocket 2.6 22:26:51 27° SW 22:29:54 60° WNW 22:35:33 10° NNE
Meteor 1-15 Rocket 4.2 22:30:17 89° S 22:30:19 90° NE 22:36:15 10° N
ARGOS 3.2 22:30:52 69° WSW 22:30:53 69° WSW 22:36:17 10° NNW
Lacrosse 5 2.8 22:35:37 10° NW 22:39:26 43° W 22:39:26 43° W
BREEZE-M DEB (TANK) 4.5 22:08:55 10° WNW 22:41:09 75° NNE 22:43:29 51° E
Cosmos 2058 Rocket 4.4 22:44:37 40° NW 22:44:37 40° NW 22:48:07 10° N
USA 215 3.1 22:44:53 77° E 22:45:15 80° NE 22:51:49 10° NW
Cosmos 841 Rocket 4.1 22:45:04 51° WNW 22:45:18 52° WNW 22:50:25 10° N
Meteor 2-17 Rocket 4.5 22:48:05 70° NNE 22:48:05 70° NNE 22:53:25 10° N
BREEZE-M DEB (TANK) 4.1 22:37:55 10° SW 22:49:08 74° SW 22:49:08 74° SW
Cosmos 2233 Rocket 4.0 22:51:56 73° N 22:51:56 73° N 22:57:32 10° N
Cosmos 2263 Rocket 3.1 22:54:13 10° NNW 22:58:15 42° NNE 22:58:15 42° NNE
Cosmos 2322 Rocket 3.2 23:03:22 40° NNE 23:03:22 40° NNE 23:06:54 10° NNE
H-2A R/B 3.4 23:19:52 33° NW 23:19:52 33° NW 23:22:56 10° NNW
BREEZE-M DEB (TANK) 3.8 23:06:06 10° WNW 23:18:46 70° WNW 23:18:46 70° WNW
Terra 3.6 23:23:37 29° NW 23:23:37 29° NW 23:26:09 10° NNW
Cosmos 2278 Rocket 4.5 23:39:18 10° NNE 23:42:08 15° NE 23:42:08 15° NE
